Time,TemperatureF,DewpointF,PressureIn,WindDirection,WindDirectionDegrees,WindSpeedMPH,WindSpeedGustMPH,Humidity,HourlyPrecipIn,Conditions,Clouds,dailyrainin,SoftwareType,DateUTC
2013-06-08 00:03:00,53.0,51.0,29.71,NE,56,4.0,-999.0,94,-99.99,,,-99.99,,2013-06-08 04:03:00,
2013-06-08 00:13:00,53.0,51.0,29.71,NE,56,4.0,-999.0,94,-99.99,,,-99.99,,2013-06-08 04:13:00,
2013-06-08 00:23:00,53.0,51.0,29.71,NE,45,4.0,-999.0,94,-99.99,,,-99.99,,2013-06-08 04:23:00,
2013-06-08 00:33:00,53.0,51.0,29.71,ENE,59,4.0,-999.0,94,-99.99,,,-99.99,,2013-06-08 04:33:00,
2013-06-08 00:42:00,53.0,51.0,29.71,ENE,59,4.0,-999.0,94,-99.99,,,-99.99,,2013-06-08 04:42:00,
2013-06-08 00:53:00,53.0,51.0,29.71,NE,47,5.0,-999.0,94,-99.99,,,-99.99,,2013-06-08 04:53:00,
2013-06-08 01:02:00,52.0,50.0,29.70,North,8,5.0,-999.0,94,-99.99,,,-99.99,,2013-06-08 05:02:00,
2013-06-08 01:12:00,52.0,50.0,29.70,North,8,5.0,-999.0,94,-99.99,,,-99.99,,2013-06-08 05:12:00,
2013-06-08 01:22:00,52.0,50.0,29.70,NE,48,5.0,-999.0,94,-99.99,,,-99.99,,2013-06-08 05:22:00,
2013-06-08 01:32:00,52.0,50.0,29.70,NNE,29,3.0,-999.0,94,-99.99,,,-99.99,,2013-06-08 05:32:00,
2013-06-08 01:42:00,52.0,50.0,29.70,NNE,29,3.0,-999.0,94,-99.99,,,-99.99,,2013-06-08 05:42:00,
2013-06-08 01:52:00,52.0,50.0,29.68,NE,55,5.0,-999.0,94,-99.99,,,-99.99,,2013-06-08 05:52:00,
2013-06-08 02:02:00,52.0,50.0,29.67,ENE,57,5.0,-999.0,94,-99.99,,,-99.99,,2013-06-08 06:02:00,
2013-06-08 02:13:00,52.0,50.0,29.67,ENE,57,5.0,-999.0,94,-99.99,,,-99.99,,2013-06-08 06:13:00,
2013-06-08 02:22:00,52.0,50.0,29.67,NE,44,4.0,-999.0,94,-99.99,,,-99.99,,2013-06-08 06:22:00,
2013-06-08 02:32:00,52.0,50.0,29.65,NE,35,6.0,-999.0,94,-99.99,,,-99.99,,2013-06-08 06:32:00,
2013-06-08 02:42:00,52.0,50.0,29.65,NE,35,6.0,-999.0,94,-99.99,,,-99.99,,2013-06-08 06:42:00,
2013-06-08 02:52:00,52.0,50.0,29.64,NNE,32,4.0,-999.0,94,-99.99,,,-99.99,,2013-06-08 06:52:00,
2013-06-08 03:02:00,51.0,49.0,29.64,NE,34,4.0,-999.0,94,-99.99,,,-99.99,,2013-06-08 07:02:00,
2013-06-08 03:12:00,51.0,49.0,29.64,NE,34,4.0,-999.0,94,-99.99,,,-99.99,,2013-06-08 07:12:00,
2013-06-08 03:22:00,51.0,49.0,29.63,NNE,13,5.0,-999.0,94,-99.99,,,-99.99,,2013-06-08 07:22:00,
2013-06-08 03:32:00,51.0,49.0,29.63,NNE,32,5.0,-999.0,94,-99.99,,,-99.99,,2013-06-08 07:32:00,
2013-06-08 03:42:00,51.0,49.0,29.63,NNE,32,5.0,-999.0,94,-99.99,,,-99.99,,2013-06-08 07:42:00,
2013-06-08 03:52:00,51.0,49.0,29.62,NE,37,6.0,-999.0,94,-99.99,,,-99.99,,2013-06-08 07:52:00,
2013-06-08 04:02:00,51.0,49.0,29.62,North,4,7.0,-999.0,94,-99.99,,,-99.99,,2013-06-08 08:02:00,
2013-06-08 04:12:00,51.0,49.0,29.62,North,4,7.0,-999.0,94,-99.99,,,-99.99,,2013-06-08 08:12:00,
2013-06-08 04:22:00,51.0,49.0,29.62,NE,52,5.0,-999.0,94,-99.99,,,-99.99,,2013-06-08 08:22:00,
2013-06-08 04:32:00,51.0,49.0,29.62,ENE,65,5.0,-999.0,94,-99.99,,,-99.99,,2013-06-08 08:32:00,
2013-06-08 04:42:00,51.0,49.0,29.62,ENE,65,5.0,-999.0,94,-99.99,,,-99.99,,2013-06-08 08:42:00,
2013-06-08 04:52:00,51.0,49.0,29.61,NE,45,5.0,-999.0,94,-99.99,,,-99.99,,2013-06-08 08:52:00,
2013-06-08 05:02:00,51.0,49.0,29.62,NNE,27,6.0,-999.0,94,-99.99,,,-99.99,,2013-06-08 09:02:00,
2013-06-08 05:12:00,51.0,49.0,29.62,NNE,27,6.0,-999.0,94,-99.99,,,-99.99,,2013-06-08 09:12:00,
2013-06-08 05:22:00,51.0,49.0,29.61,NNE,20,6.0,-999.0,94,-99.99,,,-99.99,,2013-06-08 09:22:00,
2013-06-08 05:33:00,51.0,49.0,29.62,ENE,61,7.0,-999.0,94,-99.99,,,-99.99,,2013-06-08 09:33:00,
2013-06-08 05:43:00,51.0,49.0,29.62,ENE,61,7.0,-999.0,94,-99.99,,,-99.99,,2013-06-08 09:43:00,
2013-06-08 05:53:00,51.0,49.0,29.64,NE,44,5.0,-999.0,94,-99.99,,,-99.99,,2013-06-08 09:53:00,
2013-06-08 06:03:00,52.0,50.0,29.64,NE,41,5.0,-999.0,94,-99.99,,,-99.99,,2013-06-08 10:03:00,
2013-06-08 06:12:00,52.0,50.0,29.64,NE,41,5.0,-999.0,94,-99.99,,,-99.99,,2013-06-08 10:12:00,
2013-06-08 06:22:00,52.0,50.0,29.65,North,354,6.0,-999.0,94,-99.99,,,-99.99,,2013-06-08 10:22:00,
2013-06-08 06:33:00,52.0,50.0,29.67,ENE,58,6.0,-999.0,94,-99.99,,,-99.99,,2013-06-08 10:33:00,
2013-06-08 06:43:00,52.0,50.0,29.67,ENE,58,6.0,-999.0,94,-99.99,,,-99.99,,2013-06-08 10:43:00,
2013-06-08 06:52:00,52.0,50.0,29.68,NE,37,5.0,-999.0,94,-99.99,,,-99.99,,2013-06-08 10:52:00,
2013-06-08 07:03:00,53.0,51.0,29.70,NE,37,3.0,-999.0,94,-99.99,,,-99.99,,2013-06-08 11:03:00,
2013-06-08 07:12:00,53.0,51.0,29.70,NE,37,3.0,-999.0,94,-99.99,,,-99.99,,2013-06-08 11:12:00,
2013-06-08 07:22:00,53.0,51.0,29.70,NNE,29,2.0,-999.0,94,-99.99,,,-99.99,,2013-06-08 11:22:00,
2013-06-08 07:32:00,54.0,52.0,29.72,NE,37,3.0,-999.0,94,-99.99,,,-99.99,,2013-06-08 11:32:00,
2013-06-08 07:42:00,54.0,52.0,29.72,NE,37,3.0,-999.0,94,-99.99,,,-99.99,,2013-06-08 11:42:00,
2013-06-08 07:52:00,54.0,52.0,29.74,North,359,2.0,-999.0,94,-99.99,,,-99.99,,2013-06-08 11:52:00,
2013-06-08 08:02:00,55.0,53.0,29.74,NNW,327,3.0,-999.0,93,-99.99,,,-99.99,,2013-06-08 12:02:00,
2013-06-08 08:12:00,55.0,53.0,29.74,NNW,327,3.0,-999.0,93,-99.99,,,-99.99,,2013-06-08 12:12:00,
2013-06-08 08:22:00,56.0,53.0,29.75,NNE,14,3.0,-999.0,91,-99.99,,,-99.99,,2013-06-08 12:22:00,
2013-06-08 08:33:00,57.0,54.0,29.76,North,11,4.0,-999.0,89,-99.99,,,-99.99,,2013-06-08 12:33:00,
2013-06-08 08:42:00,57.0,54.0,29.76,North,11,4.0,-999.0,89,-99.99,,,-99.99,,2013-06-08 12:42:00,
2013-06-08 08:52:00,58.0,54.0,29.76,North,359,4.0,-999.0,88,-99.99,,,-99.99,,2013-06-08 12:52:00,
2013-06-08 09:02:00,59.0,55.0,29.78,NW,322,3.0,-999.0,87,-99.99,,,-99.99,,2013-06-08 13:02:00,
2013-06-08 09:12:00,59.0,55.0,29.78,NW,322,3.0,-999.0,87,-99.99,,,-99.99,,2013-06-08 13:12:00,
2013-06-08 09:22:00,59.0,55.0,29.78,NNE,31,3.0,-999.0,87,-99.99,,,-99.99,,2013-06-08 13:22:00,
2013-06-08 09:32:00,60.0,55.0,29.80,NW,318,4.0,-999.0,84,-99.99,,,-99.99,,2013-06-08 13:32:00,
2013-06-08 09:42:00,60.0,55.0,29.80,NW,318,4.0,-999.0,84,-99.99,,,-99.99,,2013-06-08 13:42:00,
2013-06-08 09:52:00,61.0,55.0,29.81,NW,314,5.0,-999.0,82,-99.99,,,-99.99,,2013-06-08 13:52:00,
2013-06-08 10:02:00,62.0,56.0,29.83,WNW,282,4.0,-999.0,80,-99.99,,,-99.99,,2013-06-08 14:02:00,
2013-06-08 10:12:00,62.0,56.0,29.83,WNW,282,4.0,-999.0,80,-99.99,,,-99.99,,2013-06-08 14:12:00,
2013-06-08 10:22:00,63.0,56.0,29.83,NE,41,2.0,-999.0,79,-99.99,,,-99.99,,2013-06-08 14:22:00,
2013-06-08 10:32:00,63.0,56.0,29.82,NNE,13,4.0,-999.0,78,-99.99,,,-99.99,,2013-06-08 14:32:00,
2013-06-08 10:42:00,63.0,56.0,29.82,NNE,13,4.0,-999.0,78,-99.99,,,-99.99,,2013-06-08 14:42:00,
2013-06-08 10:52:00,65.0,58.0,29.83,NW,322,3.0,-999.0,77,-99.99,,,-99.99,,2013-06-08 14:52:00,
2013-06-08 11:02:00,66.0,57.0,29.84,WNW,291,4.0,-999.0,74,-99.99,,,-99.99,,2013-06-08 15:02:00,
2013-06-08 11:12:00,66.0,57.0,29.84,WNW,291,4.0,-999.0,74,-99.99,,,-99.99,,2013-06-08 15:12:00,
2013-06-08 11:22:00,66.0,57.0,29.85,NE,54,5.0,-999.0,73,-99.99,,,-99.99,,2013-06-08 15:22:00,
2013-06-08 11:33:00,67.0,58.0,29.86,NE,43,4.0,-999.0,73,-99.99,,,-99.99,,2013-06-08 15:33:00,
2013-06-08 11:42:00,67.0,58.0,29.86,NE,43,4.0,-999.0,73,-99.99,,,-99.99,,2013-06-08 15:42:00,
2013-06-08 11:53:00,67.0,58.0,29.88,NNE,29,4.0,-999.0,72,-99.99,,,-99.99,,2013-06-08 15:53:00,
2013-06-08 12:03:00,67.0,58.0,29.88,NE,54,3.0,-999.0,74,-99.99,,,-99.99,,2013-06-08 16:03:00,
2013-06-08 12:12:00,67.0,58.0,29.88,NE,54,3.0,-999.0,74,-99.99,,,-99.99,,2013-06-08 16:12:00,
2013-06-08 12:23:00,68.0,59.0,29.88,North,359,2.0,-999.0,74,-99.99,,,-99.99,,2013-06-08 16:23:00,
2013-06-08 12:33:00,68.0,58.0,29.88,North,359,3.0,-999.0,71,-99.99,,,-99.99,,2013-06-08 16:33:00,
2013-06-08 12:42:00,68.0,58.0,29.88,North,359,3.0,-999.0,71,-99.99,,,-99.99,,2013-06-08 16:42:00,
2013-06-08 12:53:00,69.0,61.0,29.88,WNW,291,1.0,-999.0,75,-99.99,,,-99.99,,2013-06-08 16:53:00,
2013-06-08 13:02:00,70.0,60.0,29.88,West,260,2.0,-999.0,70,-99.99,,,-99.99,,2013-06-08 17:02:00,
2013-06-08 13:12:00,70.0,60.0,29.88,West,260,2.0,-999.0,70,-99.99,,,-99.99,,2013-06-08 17:12:00,
2013-06-08 13:23:00,70.0,61.0,29.88,North,349,1.0,-999.0,72,-99.99,,,-99.99,,2013-06-08 17:23:00,
2013-06-08 13:32:00,71.0,62.0,29.88,NNW,346,1.0,-999.0,73,-99.99,,,-99.99,,2013-06-08 17:32:00,
2013-06-08 13:42:00,71.0,62.0,29.88,NNW,346,1.0,-999.0,73,-99.99,,,-99.99,,2013-06-08 17:42:00,
2013-06-08 13:52:00,71.0,61.0,29.89,NNW,328,2.0,-999.0,71,-99.99,,,-99.99,,2013-06-08 17:52:00,
2013-06-08 14:02:00,71.0,61.0,29.89,NNW,328,2.0,-999.0,71,-99.99,,,-99.99,,2013-06-08 18:02:00,
2013-06-08 14:12:00,71.0,61.0,29.89,NNW,328,2.0,-999.0,71,-99.99,,,-99.99,,2013-06-08 18:12:00,
2013-06-08 14:22:00,72.0,61.0,29.89,NNW,330,2.0,-999.0,68,-99.99,,,-99.99,,2013-06-08 18:22:00,
2013-06-08 14:32:00,73.0,61.0,29.89,NE,40,2.0,-999.0,65,-99.99,,,-99.99,,2013-06-08 18:32:00,
2013-06-08 14:42:00,73.0,61.0,29.89,NE,40,2.0,-999.0,65,-99.99,,,-99.99,,2013-06-08 18:42:00,
2013-06-08 14:52:00,73.0,61.0,29.89,NE,35,1.0,-999.0,66,-99.99,,,-99.99,,2013-06-08 18:52:00,
2013-06-08 15:03:00,73.0,61.0,29.89,NNW,340,0.0,-999.0,65,-99.99,,,-99.99,,2013-06-08 19:03:00,
2013-06-08 15:12:00,73.0,61.0,29.89,NNW,340,0.0,-999.0,65,-99.99,,,-99.99,,2013-06-08 19:12:00,
2013-06-08 15:22:00,74.0,60.0,29.90,North,4,2.0,-999.0,62,-99.99,,,-99.99,,2013-06-08 19:22:00,
2013-06-08 15:32:00,75.0,62.0,29.90,NNE,19,1.0,-999.0,64,-99.99,,,-99.99,,2013-06-08 19:32:00,
2013-06-08 15:42:00,75.0,62.0,29.90,NNE,19,1.0,-999.0,64,-99.99,,,-99.99,,2013-06-08 19:42:00,
2013-06-08 15:53:00,74.0,61.0,29.90,West,276,0.0,-999.0,63,-99.99,,,-99.99,,2013-06-08 19:53:00,
2013-06-08 16:02:00,73.0,61.0,29.90,NE,35,0.0,-999.0,65,-99.99,,,-99.99,,2013-06-08 20:02:00,
2013-06-08 16:12:00,73.0,61.0,29.90,NE,35,0.0,-999.0,65,-99.99,,,-99.99,,2013-06-08 20:12:00,
2013-06-08 16:22:00,73.0,61.0,29.89,NNW,340,0.0,-999.0,67,-99.99,,,-99.99,,2013-06-08 20:22:00,
2013-06-08 16:32:00,74.0,61.0,29.89,WSW,249,0.0,-999.0,65,-99.99,,,-99.99,,2013-06-08 20:32:00,
2013-06-08 16:42:00,74.0,61.0,29.89,WSW,249,0.0,-999.0,65,-99.99,,,-99.99,,2013-06-08 20:42:00,
2013-06-08 16:52:00,73.0,62.0,29.91,NW,308,0.0,-999.0,68,-99.99,,,-99.99,,2013-06-08 20:52:00,
2013-06-08 17:02:00,72.0,62.0,29.91,NW,308,0.0,-999.0,70,-99.99,,,-99.99,,2013-06-08 21:02:00,
2013-06-08 17:12:00,72.0,62.0,29.91,NW,308,0.0,-999.0,70,-99.99,,,-99.99,,2013-06-08 21:12:00,
2013-06-08 17:22:00,72.0,62.0,29.91,NW,324,0.0,-999.0,71,-99.99,,,-99.99,,2013-06-08 21:22:00,
2013-06-08 17:33:00,71.0,62.0,29.92,SW,223,0.0,-999.0,72,-99.99,,,-99.99,,2013-06-08 21:33:00,
2013-06-08 17:43:00,71.0,62.0,29.92,SW,223,0.0,-999.0,72,-99.99,,,-99.99,,2013-06-08 21:43:00,
2013-06-08 17:53:00,72.0,62.0,29.92,WSW,239,0.0,-999.0,72,-99.99,,,-99.99,,2013-06-08 21:53:00,
2013-06-08 18:02:00,72.0,62.0,29.92,WSW,247,0.0,-999.0,72,-99.99,,,-99.99,,2013-06-08 22:02:00,
2013-06-08 18:12:00,72.0,62.0,29.93,NNW,328,1.0,-999.0,70,-99.99,,,-99.99,,2013-06-08 22:12:00,
2013-06-08 18:23:00,72.0,62.0,29.93,NNW,328,1.0,-999.0,70,-99.99,,,-99.99,,2013-06-08 22:23:00,
2013-06-08 18:33:00,72.0,61.0,29.93,NW,310,0.0,-999.0,68,-99.99,,,-99.99,,2013-06-08 22:33:00,
2013-06-08 18:42:00,72.0,61.0,29.93,WNW,294,0.0,-999.0,69,-99.99,,,-99.99,,2013-06-08 22:42:00,
2013-06-08 18:52:00,72.0,61.0,29.93,WNW,294,0.0,-999.0,69,-99.99,,,-99.99,,2013-06-08 22:52:00,
2013-06-08 19:02:00,72.0,61.0,29.94,NNW,340,0.0,-999.0,69,-99.99,,,-99.99,,2013-06-08 23:02:00,
2013-06-08 19:12:00,71.0,60.0,29.95,WSW,248,1.0,-999.0,69,-99.99,,,-99.99,,2013-06-08 23:12:00,
2013-06-08 19:22:00,71.0,60.0,29.95,WSW,248,1.0,-999.0,69,-99.99,,,-99.99,,2013-06-08 23:22:00,
2013-06-08 19:32:00,71.0,60.0,29.95,NNW,329,0.0,-999.0,69,-99.99,,,-99.99,,2013-06-08 23:32:00,
2013-06-08 19:42:00,71.0,60.0,29.95,NNW,329,0.0,-999.0,69,-99.99,,,-99.99,,2013-06-08 23:42:00,
2013-06-08 19:52:00,71.0,60.0,29.96,West,259,0.0,-999.0,69,-99.99,,,-99.99,,2013-06-08 23:52:00,
2013-06-08 20:02:00,70.0,59.0,29.96,North,349,0.0,-999.0,69,-99.99,,,-99.99,,2013-06-09 00:02:00,
2013-06-08 20:12:00,70.0,59.0,29.96,North,349,0.0,-999.0,69,-99.99,,,-99.99,,2013-06-09 00:12:00,
2013-06-08 20:22:00,70.0,60.0,29.96,NNE,25,0.0,-999.0,70,-99.99,,,-99.99,,2013-06-09 00:22:00,
2013-06-08 20:32:00,69.0,60.0,29.96,NW,312,0.0,-999.0,72,-99.99,,,-99.99,,2013-06-09 00:32:00,
2013-06-08 20:42:00,69.0,60.0,29.96,NW,312,0.0,-999.0,72,-99.99,,,-99.99,,2013-06-09 00:42:00,
2013-06-08 20:52:00,68.0,59.0,29.97,NW,322,0.0,-999.0,74,-99.99,,,-99.99,,2013-06-09 00:52:00,
2013-06-08 21:02:00,67.0,59.0,29.97,North,10,0.0,-999.0,75,-99.99,,,-99.99,,2013-06-09 01:02:00,
2013-06-08 21:12:00,67.0,59.0,29.97,North,10,0.0,-999.0,76,-99.99,,,-99.99,,2013-06-09 01:12:00,
2013-06-08 21:22:00,67.0,59.0,29.97,North,10,0.0,-999.0,76,-99.99,,,-99.99,,2013-06-09 01:22:00,
2013-06-08 21:32:00,65.0,58.0,29.98,North,10,0.0,-999.0,79,-99.99,,,-99.99,,2013-06-09 01:32:00,
2013-06-08 21:42:00,65.0,58.0,29.98,North,10,0.0,-999.0,79,-99.99,,,-99.99,,2013-06-09 01:42:00,
2013-06-08 21:52:00,64.0,59.0,30.00,North,10,0.0,-999.0,83,-99.99,,,-99.99,,2013-06-09 01:52:00,
2013-06-08 22:02:00,63.0,58.0,30.01,North,10,0.0,-999.0,84,-99.99,,,-99.99,,2013-06-09 02:02:00,
2013-06-08 22:12:00,63.0,58.0,30.01,North,10,0.0,-999.0,84,-99.99,,,-99.99,,2013-06-09 02:12:00,
2013-06-08 22:22:00,63.0,58.0,30.02,North,10,0.0,-999.0,85,-99.99,,,-99.99,,2013-06-09 02:22:00,
2013-06-08 22:32:00,62.0,58.0,30.02,North,10,0.0,-999.0,86,-99.99,,,-99.99,,2013-06-09 02:32:00,
2013-06-08 22:42:00,62.0,58.0,30.02,North,10,0.0,-999.0,86,-99.99,,,-99.99,,2013-06-09 02:42:00,
2013-06-08 22:52:00,62.0,58.0,30.02,North,10,0.0,-999.0,86,-99.99,,,-99.99,,2013-06-09 02:52:00,
2013-06-08 23:02:00,62.0,57.0,30.03,North,10,0.0,-999.0,85,-99.99,,,-99.99,,2013-06-09 03:02:00,
2013-06-08 23:12:00,62.0,57.0,30.03,North,10,0.0,-999.0,85,-99.99,,,-99.99,,2013-06-09 03:12:00,
2013-06-08 23:22:00,62.0,57.0,30.03,North,10,0.0,-999.0,83,-99.99,,,-99.99,,2013-06-09 03:22:00,
2013-06-08 23:33:00,62.0,57.0,30.03,North,10,0.0,-999.0,83,-99.99,,,-99.99,,2013-06-09 03:33:00,
2013-06-08 23:43:00,62.0,57.0,30.03,North,10,0.0,-999.0,83,-99.99,,,-99.99,,2013-06-09 03:43:00,
2013-06-08 23:53:00,62.0,57.0,30.04,North,10,0.0,-999.0,84,-99.99,,,-99.99,,2013-06-09 03:53:00,